Powrót do katalogu

KUIPER-00587

AktywnyŁącznośćLEO
NORAD 69275·PAYLOAD·🇺🇸 United States

Wystrzelony May 29, 2026 z Vandenberg Space Force Base

Loading…

Następne Przeloty (najbliższe 24 godziny)

TLE

ŚwieżeSource: CelesTrak SupGP

Epoka: Sep 14, 2026, 17:28 UTC

1 69275C 26118J   26257.72790509  .00008534  00000+0  11173-2 0  2579
2 69275  51.9019 359.7175 0000711  86.2432 123.2392 14.79919395    17

Śledź KUIPER-00587 w czasie rzeczywistym z AllMySat

Download on the App Store